Middletown, PA

8:50 AM EST on December 13, 2017 (GMT -0500)
Harrisburg International

Weather History for KMDT - December, 2012

Change the Weather History Date:

Monday, December 24, 2012

  Actual Average Record
Temperature  
Mean Temperature 31 °F 32 °F  
Max Temperature 39 °F 39 °F 70 °F (2015)
Min Temperature 22 °F 25 °F -1 °F (1983)
Degree Days  
Heating Degree Days 34 33  
Month to date heating degree days 579 727  
Since 1 July heating degree days 1644 1766  
Cooling Degree Days 0 0  
Month to date cooling degree days 0 0  
Year to date cooling degree days 1226 1002  
Moisture  
Dew Point 27 °F    
Average Humidity 77    
Maximum Humidity 100    
Minimum Humidity 54    
Precipitation  
Precipitation 0.21 in 0.10 in 1.55 in (1986)
Month to date precipitation 2.82 2.60  
Year to date precipitation 44.25 40.11  
Snow  
Snow 1.70 in 0.10 in 9.70 in (1961)
Month to date snowfall 1.7 3.6  
Since 1 July snowfall 2.8 4.2  
Snow Depth 0.00 in    
Sea Level Pressure  
Sea Level Pressure 29.99 in    
Wind  
Wind Speed 3 mph (ESE)    
Max Wind Speed 13 mph    
Max Gust Speed 16 mph    
Visibility 5 miles    
Events Fog , Snow    
T = Trace of Precipitation, MM = Missing Value Source: NWS Daily Summary

Daily Weather History Graph

Daily Weather History Graph

Search for Another Location

Airport or City:

Trip Planner

Search our weather history database for the weather conditions in past years. The results will help you decide how hot, cold, wet, or windy it might be!

Date:

Astronomy

Dec. 24, 2012 Rise Set
Actual Time 7:27 AM EST 4:46 PM EST
Civil Twilight 6:56 AM EST 5:17 PM EST
Nautical Twilight 6:22 AM EST 5:51 PM EST
Astronomical Twilight 5:49 AM EST 6:24 PM EST
Moon 2:12 PM EST (12/24) 4:03 AM EST (12/24)
Length of Visible Light 10h 20m
Length of Day
9h 18m
Waxing Gibbous, 88% of the Moon is Illuminated
Dec 24
Waxing Gibbous
Dec 28
Full
Jan 4
Last Quarter
Jan 11
New
Jan 18
First Quarter

Hourly Weather History & Observations

Time (EST) Temp. Windchill Dew Point Humidity Pressure Visibility Wind Dir Wind Speed Gust Speed Precip Events Conditions
12:56 AM 26.1 °F - 21.9 °F 84% 30.00 in 10.0 mi Calm Calm - N/A   Partly Cloudy
1:56 AM 28.9 °F 23.9 °F 24.1 °F 82% 30.01 in 10.0 mi WNW 4.6 mph - N/A   Scattered Clouds
2:56 AM 27.0 °F 20.5 °F 23.0 °F 85% 30.03 in 10.0 mi NNW 5.8 mph - N/A   Scattered Clouds
3:56 AM 25.0 °F - 21.0 °F 85% 30.04 in 10.0 mi Calm Calm - N/A   Scattered Clouds
4:56 AM 23.0 °F - 19.9 °F 88% 30.04 in 10.0 mi Calm Calm - N/A   Clear
5:56 AM 23.0 °F - 19.9 °F 88% 30.06 in 10.0 mi Calm Calm - N/A   Partly Cloudy
6:56 AM 24.1 °F - 21.0 °F 88% 30.08 in 9.0 mi Calm Calm - N/A   Mostly Cloudy
7:56 AM 26.1 °F - 21.9 °F 84% 30.08 in 10.0 mi Calm Calm - N/A   Mostly Cloudy
8:56 AM 28.0 °F - 25.0 °F 88% 30.07 in 9.0 mi Calm Calm - N/A   Mostly Cloudy
9:56 AM 33.1 °F - 25.0 °F 72% 30.07 in 9.0 mi Calm Calm - N/A   Overcast
10:56 AM 36.0 °F - 25.0 °F 64% 30.08 in 9.0 mi Calm Calm - N/A   Overcast
11:56 AM 37.0 °F 32.4 °F 25.0 °F 62% 30.05 in 9.0 mi SSE 5.8 mph - N/A   Overcast
12:56 PM 39.0 °F 32.8 °F 25.0 °F 57% 30.03 in 9.0 mi SE 9.2 mph - N/A   Mostly Cloudy
1:56 PM 37.9 °F 32.7 °F 25.0 °F 60% 30.02 in 9.0 mi SE 6.9 mph - N/A   Overcast
2:56 PM 37.0 °F 31.0 °F 25.0 °F 62% 30.00 in 9.0 mi SE 8.1 mph - N/A   Overcast
3:47 PM 35.6 °F 27.5 °F 24.8 °F 65% 29.97 in 2.5 mi ESE 11.5 mph - 0.00 in Snow Light Snow
3:56 PM 34.0 °F 26.0 °F 27.0 °F 75% 29.99 in 2.0 mi ESE 10.4 mph - 0.00 in Snow Light Snow
4:06 PM 33.8 °F 26.4 °F 28.4 °F 81% 29.97 in 1.2 mi SE 9.2 mph - 0.00 in Snow Light Snow
4:25 PM 32.0 °F 25.6 °F 30.2 °F 93% 29.97 in 0.8 mi ESE 6.9 mph - 0.01 in Snow Light Snow
4:56 PM 32.0 °F 25.6 °F 30.0 °F 92% 29.96 in 0.5 mi ESE 6.9 mph - 0.05 in Fog , Snow Snow
5:05 PM 32.0 °F 26.4 °F 30.2 °F 93% 29.95 in 0.8 mi ESE 5.8 mph - 0.01 in Snow Light Snow
5:23 PM 32.0 °F 27.5 °F 30.2 °F 93% 29.94 in 0.5 mi East 4.6 mph - 0.03 in Fog , Snow Snow
5:56 PM 32.0 °F 27.5 °F 30.9 °F 96% 29.96 in 0.5 mi East 4.6 mph - 0.07 in Fog , Snow Snow
6:36 PM 30.2 °F 22.6 °F 30.2 °F 100% 29.94 in 0.8 mi ESE 8.1 mph - 0.05 in Snow Light Snow
6:56 PM 30.9 °F 25.2 °F 30.0 °F 96% 29.95 in 0.8 mi ESE 5.8 mph - 0.07 in Snow Light Snow
6:58 PM 30.2 °F 24.3 °F 30.2 °F 100% 29.93 in 1.0 mi East 5.8 mph - 0.00 in Snow Light Snow
7:26 PM 32.0 °F 27.5 °F 30.2 °F 93% 29.93 in 2.0 mi East 4.6 mph - 0.01 in Snow Light Snow
7:56 PM 32.0 °F 27.5 °F 30.9 °F 96% 29.94 in 2.5 mi ESE 4.6 mph - 0.01 in Snow Light Snow
8:56 PM 32.0 °F 27.5 °F 30.0 °F 92% 29.94 in 3.0 mi ESE 4.6 mph - 0.00 in Snow Light Snow
9:12 PM 32.0 °F 26.4 °F 30.2 °F 93% 29.92 in 2.5 mi ESE 5.8 mph - 0.00 in Snow Light Snow
9:27 PM 32.0 °F 27.5 °F 30.2 °F 93% 29.91 in 1.5 mi ESE 4.6 mph - 0.00 in Snow Light Snow
9:56 PM 32.0 °F - 30.9 °F 96% 29.93 in 1.8 mi Calm Calm - 0.01 in Snow Light Snow
10:56 PM 32.0 °F - 30.9 °F 96% 29.92 in 1.2 mi Calm Calm - 0.00 in   Light Freezing Drizzle
11:27 PM 32.0 °F - 30.2 °F 93% 29.91 in 1.8 mi Calm Calm - 0.00 in   Overcast
11:56 PM 32.0 °F - 30.9 °F 96% 29.92 in 1.0 mi Calm Calm - 0.00 in   Drizzle